This demonstration page uses our WeatherBlox Daily Observations layout. Learn more.

41.55636, -103.73856

Hourly Observations for July 30, 2016

Temp ( °F °C ) Dew Point ( °F °C ) Humidity (%) Winds ( mph kmh ) Pressure ( in mb ) Visibility ( mi km ) Precip ( " mm )
12:53 am 00:53 Clear 62 16.7 57 13.9 84 84 SSE 3 6 29.92 1013 10 16.0934 0 0
1:53 am 01:53 Clear 61 16.1 57 13.9 87 87 NNE 5 7 29.91 1013 10 16.0934 0 0
2:53 am 02:53 Clear 61 16.1 58 14.4 90 90 ENE 8 13 29.89 1012 10 16.0934 0 0
3:53 am 03:53 Clear 61 16.1 57 13.9 87 87 N 6 9 29.89 1012 10 16.0934 0 0
4:53 am 04:53 Clear 60 15.6 57 13.9 90 90 WSW 3 6 29.91 1013 10 16.0934 0 0
5:53 am 05:53 Sunny 59 15 56 13.3 90 90 Calm 29.95 1014 10 16.0934 0 0
6:53 am 06:53 Sunny 62 16.7 59 15 90 90 ENE 3 6 29.93 1014 9 14.48406 0 0
7:53 am 07:53 Sunny 64 17.8 59 15 84 84 E 10 17 29.91 1013 10 16.0934 0 0.0254
8:53 am 08:53 Sunny 70 21.1 62 16.7 76 76 E 6 9 29.9 1013 10 16.0934 0 0
9:53 am 09:53 Sunny 74 23.3 63 17.2 69 69 E 5 7 29.89 1012 10 16.0934 0 0
10:53 am 10:53 Sunny 77 25 64 17.8 64 64 E 8 13 29.88 1012 10 16.0934 0 0
11:53 am 11:53 Sunny 80 26.7 65 18.3 60 60 E 10 17 29.86 1011 10 16.0934 0 0
12:53 pm 12:53 Sunny 84 28.9 66 18.9 55 55 ESE 13 20 29.84 1010 10 16.0934 0 0
1:53 pm 13:53 Sunny 86 30 62 16.7 45 45 E 17 28 29.81 1010 10 16.0934 0 0
2:53 pm 14:53 Sunny 87 30.6 62 16.7 43 43 ESE 15 24 29.8 1009 10 16.0934 0 0
3:53 pm 15:53 Sunny 89 31.7 60 15.6 38 38 SE 17 28 29.77 1008 10 16.0934 0 0
4:53 pm 16:53 Sunny 89 31.7 60 15.6 38 38 ESE 18 30 29.75 1007 10 16.0934 0 0
5:53 pm 17:53 Sunny 88 31.1 61 16.1 40 40 ESE 15 24 29.73 1007 10 16.0934 0 0
6:53 pm 18:53 Sunny 86 30 57 13.9 37 37 SE 14 22 29.72 1006 10 16.0934 0 0
7:53 pm 19:53 Sunny 81 27.2 58 14.4 45 45 SSE 9 15 29.75 1008 10 16.0934 0 0
8:53 pm 20:53 Clear 80 26.7 60 15.6 51 51 SE 13 20 29.73 1007 10 16.0934 0 0
9:53 pm 21:53 Clear 73 22.8 62 16.7 69 69 ENE 6 9 29.77 1008 10 16.0934 0 0
10:53 pm 22:53 Clear 71 21.7 62 16.7 73 73 E 8 13 29.76 1008 10 16.0934 0 0
11:53 pm 23:53 Clear 69 20.6 62 16.7 78 78 ESE 10 17 29.73 1007 10 16.0934 0 0

Powered by AerisWeather